sat.trackr.live / text

‹ back to catalog

QIANFAN-94

NORAD 66036 · 2025-233D

PAYLOAD ACTIVE UNKNOWN

§ Identity

Operator
Country
PRC
Launch date
2025-10-17
Launch site
TAISC
Launch vehicle
Mass (kg)
RCS (m²)

External: N2YO · Heavens-Above · Gunter

§ Orbital elements

Epoch: 2026-05-25T02:29:30.530976Z

Period
106.59 min
Inclination
89.0026°
Eccentricity
0.0002100
Mean motion
13.51006136 rev/d
Perigee alt
1,067.0 km
Apogee alt
1,070.1 km
Semi-major
7,446.7 km
B*
1.6932e-4
RAAN
45.4469°
Arg perigee
73.5460°
Mean anomaly
286.5922°
Rev number
3,011

§ Raw data

QIANFAN-941 66036U 25233D   26145.10382559  .00000121  00000+0  16932-3 0  99942 66036  89.0026  45.4469 0002100  73.5460 286.5922 13.51006136 30113

JSON: /api/v1/satellites/66036 · /tle

For live sub-satellite position, see the globe view (requires WebGL).

§ Visibility from observer

Set your observer location to see the next 7 days of passes ≥ 10°. The values pass through the URL so the page stays shareable.

No JS? Fill the form by hand. The geolocation button needs JavaScript.